Weather History for Cleveland, OH

Change the Weather History Date:

Monday, April 15, 2013

  Actual Average Record
Temperature  
Mean Temperature 62 °F 50 °F  
Max Temperature 71 °F 59 °F 84 °F (2010)
Min Temperature 52 °F 40 °F 22 °F (1935)
Degree Days  
Heating Degree Days 3 16  
Month to date heating degree days 284 274  
Since 1 July heating degree days 5423 5317  
Cooling Degree Days 0 0  
Month to date cooling degree days 0 0  
Year to date cooling degree days 0 1  
Growing Degree Days 11 (Base 50)    
Moisture  
Dew Point 44 °F    
Average Humidity 57    
Maximum Humidity 69    
Minimum Humidity 45    
Precipitation  
Precipitation 0.00 in 0.12 in 0.70 in (2001)
Month to date precipitation 2.06 1.83  
Year to date precipitation 8.78 9.82  
Snow  
Snow 0.00 in 0.10 in - ()
Month to date snowfall 0.2 2.6  
Since 1 July snowfall 51.6 67.4  
Snow Depth 0.00 in    
Sea Level Pressure  
Sea Level Pressure 30.00 in    
Wind  
Wind Speed 13 mph (South)    
Max Wind Speed 23 mph    
Max Gust Speed 30 mph    
Visibility 10 miles    
Events      
T = Trace of Precipitation, MM = Missing Value Source: NWS Daily Summary

Daily Weather History Graph

Daily Weather History Graph

Search for Another Location

Airport:

Trip Planner

Search our weather history database for the weather conditions in past years. The results will help you decide how hot, cold, wet, or windy it might be!

Date:

Astronomy

Apr. 15, 2013 Rise Set
Actual Time 6:47 AM EDT 8:08 PM EDT
Civil Twilight 6:18 AM EDT 8:36 PM EDT
Nautical Twilight 5:44 AM EDT 9:11 PM EDT
Astronomical Twilight 5:07 AM EDT 9:47 PM EDT
Moon 10:10 AM EDT (4/15) 12:21 AM EDT (4/15)
Length of Visible Light 14h 18m
Length of Day
13h 20m
Waxing Crescent, 24% of the Moon is Illuminated
Apr 15
Waxing Crescent
Apr 18
First Quarter
Apr 25
Full
May 2
Last Quarter
May 9
New

Hourly Weather History & Observations

Time (EDT) Temp. Dew Point Humidity Pressure Visibility Wind Dir Wind Speed Gust Speed Precip Events Conditions
12:51 AM 53.1 °F 36.0 °F 52% 29.97 in 10.0 mi SE 13.8 mph - N/A   Overcast
1:51 AM 54.0 °F 36.0 °F 51% 29.95 in 10.0 mi SE 11.5 mph - N/A   Overcast
2:51 AM 54.0 °F 37.0 °F 53% 29.95 in 10.0 mi SSE 8.1 mph - N/A   Overcast
3:51 AM 54.0 °F 37.0 °F 53% 29.95 in 10.0 mi SSE 9.2 mph - N/A   Mostly Cloudy
4:51 AM 53.1 °F 37.0 °F 55% 29.96 in 10.0 mi SSE 11.5 mph - N/A   Mostly Cloudy
5:51 AM 52.0 °F 37.0 °F 57% 29.99 in 10.0 mi South 9.2 mph - N/A   Scattered Clouds
6:51 AM 55.0 °F 37.0 °F 51% 30.01 in 10.0 mi South 10.4 mph - N/A   Scattered Clouds
7:51 AM 55.0 °F 37.9 °F 53% 30.04 in 10.0 mi South 9.2 mph - N/A   Scattered Clouds
8:51 AM 59.0 °F 41.0 °F 51% 30.05 in 10.0 mi SSW 11.5 mph - N/A   Scattered Clouds
9:51 AM 63.0 °F 45.0 °F 52% 30.01 in 10.0 mi South 11.5 mph - N/A   Mostly Cloudy
10:51 AM 64.9 °F 46.0 °F 50% 30.02 in 10.0 mi SSW 16.1 mph 23.0 mph N/A   Mostly Cloudy
11:51 AM 66.9 °F 46.9 °F 49% 30.03 in 10.0 mi South 19.6 mph 26.5 mph N/A   Scattered Clouds
12:51 PM 68.0 °F 46.9 °F 47% 30.01 in 10.0 mi South 17.3 mph 28.8 mph N/A   Mostly Cloudy
1:51 PM 68.0 °F 48.0 °F 49% 30.02 in 10.0 mi South 15.0 mph 26.5 mph N/A   Mostly Cloudy
2:51 PM 68.0 °F 50.0 °F 52% 30.00 in 10.0 mi South 16.1 mph 23.0 mph N/A   Mostly Cloudy
3:51 PM 66.9 °F 48.9 °F 52% 29.99 in 10.0 mi South 15.0 mph 25.3 mph N/A   Mostly Cloudy
4:51 PM 68.0 °F 50.0 °F 52% 29.98 in 10.0 mi South 13.8 mph 24.2 mph N/A   Overcast
5:51 PM 68.0 °F 50.0 °F 52% 29.96 in 10.0 mi South 15.0 mph 21.9 mph N/A   Mostly Cloudy
6:51 PM 66.0 °F 50.0 °F 56% 29.97 in 10.0 mi SSE 21.9 mph 28.8 mph N/A   Scattered Clouds
7:51 PM 64.0 °F 50.0 °F 60% 29.98 in 10.0 mi South 17.3 mph 26.5 mph N/A   Mostly Cloudy
8:51 PM 63.0 °F 50.0 °F 63% 30.00 in 10.0 mi South 9.2 mph - N/A   Partly Cloudy
9:51 PM 61.0 °F 50.0 °F 67% 30.01 in 10.0 mi SSE 11.5 mph - N/A   Clear
10:51 PM 60.1 °F 50.0 °F 69% 30.02 in 10.0 mi SSE 9.2 mph - N/A   Mostly Cloudy
11:51 PM 60.1 °F 48.9 °F 67% 30.01 in 10.0 mi South 10.4 mph - N/A   Clear